User: anonymous   Login
Location: Unspecified
(0.0000°N, 0.0000°E)
Time: 22:09:55
(UTC+02:00)
Language:

Cosmos 2263 Rocket - Orbit

View from above orbital plane
View from above orbital plane
View from above satellite
View from above satellite

Ground track
Ground track

The orbit data is extracted from the following two-line orbital elements,

1 22803U 93059B   16237.89833974 -.00000115 +00000-0 -33569-4 0  9990
2 22803 070.9908 153.7764 0015269 120.7351 239.5278 14.16748548186060
Epoch (UTC): 24 August 2016 21:33:36
Eccentricity: 0.0015269
inclination: 70.9908°
perigee height: 825 km
apogee height: 847 km
right ascension of ascending node: 153.7764°
argument of perigee: 120.7351°
revolutions per day: 14.16748548
mean anomaly at epoch: 239.5278°
orbit number at epoch: 18606

The dashed part of the orbit path shows where the satellite is in the earth's shadow,  

DLR